Location: Boiro
(42.6475°N, 8.8834°W)
Time: 23:59:19
(UTC+01:00)

Tiros 1 - Pass Details

Date: 15 December 2021
Orbit: 629 x 664 km, 48.4° (Epoch: 18 January)

Event Time Altitude Azimuth Distance (km) Brightness Sun altitude
Rises 15:57:07 0° 237° (WSW) 2,905 11.8 15.9°
Reaches altitude 10° 15:59:26 10° 235° (SW) 2,000 11.3 15.7°
Maximum altitude 16:04:01 76° 150° (SSE) 650 7.5 15.2°
Drops below altitude 10° 16:08:38 10° 65° (ENE) 2,012 9.2 14.7°
Sets 16:10:58 0° 64° (ENE) 2,925 10.0 14.4°
